DW4273 Weather Reports


Display with metric or nautical units.
time (UTC)temp
F
wind
direction
speed
MPH
gust
MPH
rain 1hr
in
rain 24hr
in
rain mn
in
humidity
%
barometer
mb
20260905051015 70 0.0 0.0 0.03 0.35 0.03 94 1012.7
20260905050015 70 0.0 0.0 0.02 0.34 0.02 94 1012.8
20260905045015 70 0.0 0.0 0.02 0.34 0.02 94 1012.7
20260905044058 70 0.0 0.0 0.00 0.32 0.00 94 1012.8
20260905043017 70 0.0 0.0 0.00 0.32 0.00 94 1013.1
20260905042017 69 0.0 0.0 0.00 0.32 0.00 93 1012.9
20260905041017 69 0.0 0.0 0.00 0.32 0.00 93 1012.8
20260905040018 69 0.0 0.0 0.00 0.32 0.32 93 1012.7
20260905035117 69 0.0 0.0 0.00 0.32 0.32 93 1012.8
20260905034016 69 0.0 0.0 0.00 0.32 0.32 93 1012.5
20260905033037 69 0.0 0.0 0.00 0.32 0.32 93 1012.5
20260905032037 69 0.0 0.0 0.00 0.32 0.32 93 1012.5
20260905031037 69 0.0 0.0 0.00 0.32 0.32 92 1012.4
20260905030017 69 0.0 0.0 0.00 0.32 0.32 91 1012.5
20260905025037 70 0.0 0.0 0.00 0.32 0.32 91 1012.5
20260905024017 70 0.0 0.0 0.00 0.32 0.32 91 1012.7
20260905023052 70 0.0 0.0 0.00 0.32 0.32 91 1012.7
20260905022017 70 0.0 0.0 0.00 0.32 0.32 91 1012.6
20260905021017 71 0.0 0.0 0.00 0.32 0.32 91 1012.6
20260905020057 71 0.0 0.0 0.00 0.32 0.32 90 1012.7
20260905015017 71 0.0 0.0 0.00 0.32 0.32 90 1012.6
20260905014037 71 0.0 0.0 0.00 0.32 0.32 89 1012.6
20260905013017 72 0.0 0.0 0.00 0.32 0.32 89 1012.7
20260905012017 72 0.0 0.0 0.00 0.32 0.32 88 1012.7
20260905011017 72 0.0 0.0 0.00 0.32 0.32 87 1012.6
20260905010017 73 0.0 0.0 0.00 0.32 0.32 87 1012.7
20260905005037 73 0.0 0.0 0.00 0.32 0.32 86 1012.6
20260905004017 74 0.0 0.0 0.00 0.32 0.32 84 1012.6
20260905003017 75 0.0 0.0 0.00 0.32 0.32 84 1012.5
20260905002017 76 0.0 1.0 0.00 0.32 0.32 83 1012.5
20260905001017 76 0.0 0.0 0.00 0.32 0.32 82 1012.7
20260905000037 77 0.0 0.0 0.00 0.32 0.32 81 1012.6
20260904235017 78 0.0 2.0 0.00 0.32 0.32 80 1012.5
20260904234017 78 0.0 2.0 0.00 0.32 0.32 80 1012.5
20260904233037 79 0.0 0.0 0.00 0.32 0.32 80 1012.8
20260904232017 79 315 2.0 3.0 0.00 0.32 0.32 79 1012.8
20260904231017 78 225 3.0 6.0 0.00 0.32 0.32 80 1012.8
20260904230037 78 180 2.0 4.0 0.00 0.32 0.32 81 1012.7
20260904225017 78 90 1.0 3.0 0.00 0.32 0.32 82 1012.5
20260904224017 78 0.0 0.0 0.00 0.34 0.32 82 1012.7
20260904223017 78 225 1.0 2.0 0.00 0.34 0.32 81 1012.6
20260904222017 78 0.0 2.0 0.00 0.34 0.32 80 1012.7
20260904221017 78 0 1.0 3.0 0.00 0.34 0.32 80 1012.5
20260904220017 78 113 1.0 2.0 0.00 0.34 0.32 78 1012.3
20260904215017 78 113 1.0 2.0 0.00 0.34 0.32 79 1012.0
20260904214017 78 0.0 1.0 0.00 0.34 0.32 79 1011.8
20260904213017 78 90 1.0 3.0 0.00 0.34 0.32 78 1011.6
20260904212017 78 90 2.0 4.0 0.00 0.34 0.32 77 1011.5
20260904211017 78 90 3.0 5.0 0.00 0.34 0.32 77 1011.6
20260904210017 78 90 2.0 6.0 0.00 0.34 0.32 77 1011.3
20260904205017 78 113 2.0 5.0 0.00 0.34 0.32 76 1010.9
20260904204037 78 158 3.0 6.0 0.00 0.34 0.32 75 1011.0
20260904203017 78 113 2.0 5.0 0.00 0.34 0.32 76 1010.9
20260904202017 78 113 2.0 5.0 0.00 0.34 0.32 76 1011.3
20260904201017 78 180 2.0 4.0 0.00 0.34 0.32 75 1011.6
20260904200017 78 158 1.0 3.0 0.00 0.34 0.32 78 1011.9
20260904195017 77 225 3.0 5.0 0.00 0.34 0.32 81 1012.1
20260904194037 76 248 2.0 5.0 0.00 0.34 0.32 84 1012.5
20260904193017 75 225 1.0 4.0 0.00 0.34 0.32 85 1012.6
20260904192017 74 293 1.0 4.0 0.00 0.34 0.32 87 1012.6
20260904191017 73 158 3.0 4.0 0.00 0.34 0.32 87 1012.4
20260904190556 73 180 3.0 5.0 0.00 0.34 0.32 87 1012.5
20260904190017 73 180 3.0 6.0 0.00 0.34 0.32 88 1012.5
20260904185017 72 225 4.0 5.0 0.00 0.34 0.32 88 1012.7
20260904184057 72 158 3.0 6.0 0.00 0.34 0.32 87 1012.1
20260904183017 73 203 5.0 8.0 0.00 0.34 0.32 86 1012.7
20260904182138 74 270 3.0 8.0 0.00 0.34 0.32 85 1014.0
20260904181017 74 315 4.0 8.0 0.00 0.34 0.32 86 1014.6
20260904180058 75 293 5.0 10.0 0.00 0.34 0.32 87 1014.9
20260904175017 75 338 5.0 9.0 0.00 0.34 0.32 87 1015.1
20260904174017 75 338 4.0 9.0 0.00 0.34 0.32 88 1015.4
20260904173017 75 315 6.0 10.0 0.00 0.34 0.32 88 1015.3
20260904172037 75 315 5.0 10.0 0.00 0.34 0.32 88 1015.4
20260904171018 75 45 4.0 8.0 0.00 0.34 0.32 90 1015.1
20260904170017 75 315 4.0 9.0 0.00 0.34 0.32 90 1015.1
20260904165017 74 0 4.0 8.0 0.00 0.34 0.32 91 1014.9
20260904164017 74 23 4.0 9.0 0.00 0.34 0.32 92 1014.9
20260904163017 73 23 4.0 10.0 0.00 0.34 0.32 93 1015.0
20260904162017 73 315 5.0 10.0 0.00 0.34 0.32 93 1015.2
20260904161017 72 23 5.0 11.0 0.00 0.34 0.32 94 1015.1
20260904160017 72 23 4.0 8.0 0.00 0.34 0.32 94 1015.0
20260904155017 72 315 1.0 5.0 0.00 0.34 0.32 95 1014.9
20260904154037 71 338 1.0 5.0 0.00 0.34 0.32 94 1014.6
20260904153035 71 0.0 0.0 0.05 0.34 0.32 95 1013.9
20260904152015 70 0.0 0.0 0.06 0.34 0.32 95 1013.7
20260904151015 70 0.0 0.0 0.08 0.34 0.32 95 1013.6
20260904150035 69 0.0 0.0 0.14 0.34 0.32 95 1013.6
20260904145036 69 0.0 2.0 0.24 0.34 0.32 95 1013.5
20260904144015 69 0.0 5.0 0.25 0.34 0.32 95 1013.4
20260904143015 69 0.0 5.0 0.21 0.29 0.27 95 1013.8
20260904142015 69 0.0 0.0 0.22 0.40 0.26 95 1013.1
20260904141015 69 270 2.0 6.0 0.21 0.38 0.24 95 1013.9
20260904140015 69 270 3.0 10.0 0.15 0.32 0.18 95 1014.4
20260904135016 69 0.0 0.0 0.06 0.22 0.08 95 1014.2
20260904134015 69 0.0 0.0 0.06 0.21 0.07 95 1014.1
20260904133015 69 0.0 0.0 0.05 0.20 0.06 95 1014.3
20260904132036 69 0.0 0.0 0.03 0.18 0.04 95 1014.3
20260904131016 69 0.0 0.0 0.02 0.17 0.03 95 1014.3
20260904130015 68 0.0 0.0 0.02 0.17 0.03 95 1014.3
20260904125016 68 0.0 0.0 0.01 0.16 0.02 95 1014.2
20260904124016 68 0.0 0.0 0.00 0.15 0.01 95 1014.1
20260904123015 68 0.0 0.0 0.00 0.15 0.01 95 1013.9
20260904122015 68 0.0 0.0 0.00 0.15 0.01 95 1013.9
20260904121015 68 0.0 0.0 0.00 0.15 0.01 95 1014.0
20260904120056 68 0.0 0.0 0.00 0.15 0.01 95 1013.8
20260904115016 68 0.0 0.0 0.01 0.15 0.01 95 1013.6
20260904114016 68 0.0 0.0 0.01 0.15 0.01 95 1013.6
20260904113016 68 0.0 0.0 0.01 0.15 0.01 95 1013.3
20260904112055 67 0.0 0.0 0.01 0.15 0.01 95 1013.3
20260904111015 67 0.0 1.0 0.01 0.15 0.01 95 1013.3
20260904110056 67 0.0 0.0 0.01 0.15 0.01 94 1013.0
20260904105015 67 0.0 0.0 0.00 0.14 0.00 94 1012.9
20260904104016 67 0.0 0.0 0.00 0.14 0.00 94 1013.3
20260904103015 67 0.0 0.0 0.00 0.14 0.00 95 1013.0
20260904102015 67 0.0 0.0 0.00 0.14 0.00 95 1013.1
20260904101015 67 0.0 0.0 0.00 0.14 0.00 94 1013.3
20260904100016 67 0.0 0.0 0.00 0.14 0.00 94 1013.3
20260904095056 67 0.0 0.0 0.00 0.14 0.00 94 1013.4
20260904094015 67 0.0 0.0 0.00 0.14 0.00 94 1013.6
20260904093015 67 0.0 0.0 0.00 0.14 0.00 94 1013.5
20260904092016 68 0.0 0.0 0.00 0.14 0.00 94 1013.6
20260904091016 67 0.0 0.0 0.00 0.14 0.00 94 1013.3
20260904090016 68 0.0 0.0 0.00 0.14 0.00 94 1013.3
20260904085016 68 0.0 0.0 0.00 0.14 0.00 94 1013.4
20260904084035 68 0.0 0.0 0.00 0.14 0.00 94 1013.3
20260904083015 68 0.0 0.0 0.00 0.14 0.00 94 1013.2
20260904082015 68 0.0 0.0 0.00 0.14 0.00 94 1013.2
20260904081016 68 0.0 0.0 0.00 0.14 0.00 94 1013.2
20260904080016 68 0.0 0.0 0.00 0.14 0.00 94 1013.4
20260904075015 68 0.0 2.0 0.00 0.14 0.00 94 1013.5
20260904074016 68 0.0 0.0 0.00 0.14 0.00 94 1013.4
20260904073016 69 0.0 1.0 0.00 0.14 0.00 94 1013.6
20260904072015 69 0.0 1.0 0.00 0.14 0.00 94 1013.5
20260904071016 69 68 2.0 3.0 0.00 0.14 0.00 94 1013.7
20260904070015 69 23 1.0 3.0 0.00 0.14 0.00 94 1013.7
20260904065116 69 0.0 0.0 0.00 0.14 0.00 94 1013.7
20260904064056 69 0.0 0.0 0.00 0.14 0.00 94 1013.9
20260904063016 69 0.0 0.0 0.00 0.14 0.00 94 1013.8
20260904062015 69 0.0 0.0 0.00 0.14 0.00 94 1013.6
20260904061611 69 0.0 3.0 0.00 0.14 0.00 94 1013.5
20260904060516 69 0.0 0.0 0.00 0.14 0.00 94 1013.4
20260904055516 69 203 3.0 5.0 0.00 0.14 0.00 94 1013.5
20260904054516 69 0.0 2.0 0.00 0.14 0.00 94 1013.5
20260904053536 69 0.0 0.0 0.00 0.14 0.00 94 1013.5
20260904052535 69 0.0 0.0 0.00 0.14 0.00 94 1013.6
20260904051515 69 0.0 0.0 0.00 0.14 0.00 94 1013.6